Location: Eyeline Observatory
(43.2182°N, 78.8632°W)
Time: 11:27:59
(UTC-04:00)

Vanguard 2 - All Passes

Search period start: 14 August 2018 00:00
Search period end: 24 August 2018 00:00
Orbit: 554 x 2938 km, 32.9° (Epoch: 12 August)

Date Brightness Start Highest point End Pass type
(mag) Time Alt. Az. Time Alt. Az. Time Alt. Az.
14 Aug - 11:57:17 10° SSW 11:59:44 15° SSE 12:02:24 10° ESE daylight
14 Aug - 14:03:18 10° SW 14:07:12 27° S 14:12:28 10° ESE daylight
14 Aug - 16:10:42 10° WSW 16:15:21 23° SSW 16:21:51 10° SE daylight
14 Aug - 18:21:36 10° SW 18:24:15 11° SSW 18:27:12 10° S daylight
15 Aug - 12:14:38 10° SSW 12:17:30 19° SSE 12:20:45 10° ESE daylight
15 Aug - 14:21:14 10° WSW 14:25:05 26° S 14:30:18 10° SE daylight
15 Aug - 16:29:11 10° WSW 16:33:20 18° SSW 16:38:49 10° SSE daylight
16 Aug - 12:32:14 10° SW 12:35:20 21° S 12:38:53 10° ESE daylight
16 Aug - 14:39:17 10° WSW 14:43:00 23° S 14:47:57 10° SE daylight
16 Aug - 16:48:14 10° SW 16:51:21 14° SSW 16:55:05 10° S daylight
17 Aug - 10:43:57 10° S 10:45:44 12° SSE 10:47:28 10° SE daylight
17 Aug - 12:50:01 10° SW 12:53:10 22° S 12:56:53 10° SE daylight
17 Aug - 14:57:30 10° SW 15:00:57 19° S 15:05:21 10° SSE daylight
18 Aug - 11:01:01 10° SSW 11:03:33 16° SSE 11:06:02 10° SE daylight
18 Aug - 13:07:55 10° SW 13:11:03 21° S 13:14:43 10° SE daylight
18 Aug - 15:16:05 10° SW 15:18:54 15° SSW 15:22:18 10° SSE daylight
19 Aug - 11:18:31 10° SW 11:21:23 18° S 11:24:14 10° SE daylight
19 Aug - 13:25:58 10° SW 13:28:55 19° S 13:32:22 10° SE daylight
19 Aug - 15:35:48 10° SSW 15:36:51 10° SSW 15:37:58 10° S daylight
20 Aug - 09:29:29 10° SSW 09:31:39 13° SSE 09:33:37 10° SE daylight
20 Aug - 11:36:14 10° SW 11:39:15 20° S 11:42:15 10° SE daylight
20 Aug - 13:44:14 10° SW 13:46:49 16° S 13:49:46 10° SSE daylight
21 Aug - 09:46:29 10° SSW 09:49:33 16° S 09:52:12 10° SE daylight
21 Aug - 11:54:07 10° SW 11:57:06 20° S 12:00:06 10° SE daylight
21 Aug - 14:02:57 10° SW 14:04:42 12° SSW 14:06:36 10° S daylight
22 Aug - 07:57:43 10° S 07:59:31 11° SSE 08:01:08 10° SE daylight
22 Aug - 10:03:56 10° SW 10:07:25 20° S 10:10:25 10° SE daylight
22 Aug - 12:12:09 10° SW 12:14:57 18° S 12:17:47 10° SE daylight
23 Aug - 08:13:51 10° SSW 08:17:28 16° SSE 08:20:25 10° SE daylight
23 Aug - 10:21:38 10° SW 10:25:18 21° S 10:28:26 10° SE daylight
23 Aug - 12:30:24 10° SW 12:32:47 15° SSW 12:35:13 10° SSE daylight
